Temp
9 8 8 8 9 9 9 9 8 8 9 9 9 9 8 8 8 8 7 7 7 7
8 8 7 8 7 8 8 8 7 8 9 8 8 8 8 8 8 8 7 8 7 7
8 8 7 7 6 6 7 7 7 7 7 7 7 7 7 7 7 7 7 7 6 6
8 7 7 7 7 7 6 7 7 6 6 6 6 6 6 6 6 7 6 6 6 6
8 7 7 7 7 6 6 7 6 6 6 6 6 6 6 6 6 6 6 6 6 6
8 8 8 6 6 6 6 6 6 6 6 6 6 6 6 6 6 6 6 5 5 5
8 8 7 7 7 7 6 6 6 6 6 5 5 5 5 6 6 6 5 5 5 4
7 7 7 7 7 7 6 6 6 5 5 5 5 5 5 5 5 5 5 4 4 4
7 7 7 7 6 6 6 5 5 5 5 5 5 5 5 5 4 4 4 4 3 3
7 6 6 6 5 5 5 5 5 5 5 5 5 5 4 4 4 4 3 3 3 3
6 6 6 5 5 5 5 4 5 4 4 4 4 4 3 3 3 3 2 2 2 2
6 6 5 5 5 5 4 4 4 4 4 4 3 3 3 2 2 2 1 1 1 1
6 5 5 4 4 4 4 4 3 3 3 3 2 2 1 1 1 -0 0 1 1 0
5 5 4 4 4 4 3 3 3 3 2 2 2 1 0 -0 -0 -1 -1 -0 -0 -1
Height
1481 1487 1491 1494 1495 1496 1499 1504 1508 1510 1514 1517 1518 1519 1521 1524 1525 1524 1525 1524 1527 1530
1482 1487 1490 1492 1493 1497 1501 1504 1507 1509 1510 1514 1513 1517 1518 1519 1520 1518 1522 1522 1525 1526
1478 1483 1485 1488 1490 1495 1497 1500 1502 1505 1507 1510 1511 1514 1514 1514 1513 1515 1517 1520 1523 1523
1476 1479 1482 1485 1489 1492 1494 1497 1500 1502 1504 1505 1506 1508 1508 1510 1512 1513 1515 1517 1518 1520
1472 1475 1479 1481 1484 1488 1491 1494 1496 1496 1498 1500 1501 1502 1505 1506 1509 1512 1514 1514 1516 1516
1469 1472 1474 1477 1478 1481 1485 1487 1489 1492 1495 1497 1499 1500 1501 1503 1506 1507 1511 1511 1513 1512
1467 1468 1470 1474 1476 1479 1481 1484 1486 1489 1492 1494 1496 1497 1499 1501 1503 1504 1506 1507 1508 1507
1466 1468 1470 1471 1474 1476 1479 1481 1483 1486 1488 1490 1493 1495 1497 1498 1499 1500 1501 1502 1503 1502
1463 1465 1467 1469 1472 1474 1476 1478 1480 1483 1485 1488 1490 1491 1492 1493 1495 1496 1495 1497 1498 1499
1461 1462 1464 1467 1469 1471 1473 1475 1478 1480 1482 1484 1486 1487 1488 1490 1490 1491 1492 1494 1494 1494
1459 1461 1463 1466 1468 1469 1471 1473 1475 1477 1479 1481 1483 1484 1485 1486 1486 1488 1489 1489 1489 1489
1459 1460 1462 1464 1466 1467 1469 1471 1472 1474 1476 1478 1479 1480 1481 1482 1483 1484 1484 1485 1485 1483
1459 1460 1461 1462 1464 1465 1467 1469 1470 1472 1473 1475 1476 1477 1477 1477 1478 1479 1480 1479 1479 1479
1457 1458 1459 1460 1462 1463 1465 1467 1468 1469 1470 1471 1472 1473 1473 1473 1473 1473 1473 1474 1474 1474
Wind_Speed
25 24 25 26 27 23 25 22 18 20 15 12 15 16 16 15 15 12 10 9 11 14
23 23 25 20 18 18 19 21 20 18 20 19 17 19 18 18 19 15 14 15 16 17
24 22 22 22 25 26 23 25 24 20 19 19 17 19 18 16 14 15 13 15 15 14
21 21 20 19 19 18 19 19 18 20 22 21 21 17 13 13 13 13 15 15 14 13
20 20 20 20 19 20 20 20 21 18 16 16 15 12 13 12 13 15 15 14 14 13
18 20 22 25 26 26 23 20 17 15 15 15 14 13 13 14 15 13 14 14 14 14
12 11 13 15 17 17 16 17 16 16 17 16 15 14 15 14 14 14 14 15 15 15
6 8 9 11 13 15 17 17 16 16 16 15 17 16 15 14 14 14 14 15 16 16
8 9 9 10 12 14 15 16 16 16 16 16 15 14 14 14 14 15 15 16 17 18
7 8 8 10 11 12 13 14 14 14 14 14 14 14 14 15 15 16 17 18 18 18
5 6 8 9 10 10 12 12 12 13 13 14 13 14 15 16 16 16 17 17 18 18
5 6 7 7 8 9 11 11 12 13 14 14 13 14 14 15 16 16 17 17 17 17
7 7 7 8 9 10 11 12 12 13 13 13 13 14 14 15 19 18 15 16 18 17
7 9 9 9 10 11 11 12 12 13 14 15 16 16 21 21 19 17 16 16 15 14
Wind_Direction
215 212 214 218 232 236 223 212 226 218 211 229 241 238 225 228 225 223 235 251 265 276
211 222 222 228 208 212 226 218 205 235 247 230 224 231 232 236 246 249 249 259 258 254
228 228 233 228 227 231 227 227 242 229 221 228 231 239 240 244 248 251 255 253 251 251
226 230 232 224 217 217 212 212 225 243 245 242 239 241 247 253 250 253 250 246 249 257
228 227 226 223 223 223 228 239 247 244 251 249 237 241 245 248 255 255 252 251 254 259
245 245 242 236 234 232 237 240 240 239 242 242 245 244 247 246 245 249 252 254 258 265
252 255 250 249 245 234 232 235 234 241 241 244 248 248 245 243 245 246 249 253 260 266
246 236 235 232 230 229 230 233 237 236 238 241 242 239 239 240 242 246 251 258 266 270
238 242 239 229 226 226 227 226 227 230 233 234 235 236 237 240 245 251 258 262 266 269
245 244 238 234 233 229 227 225 226 230 228 230 232 234 238 245 251 257 261 265 269 271
253 237 230 232 234 229 223 225 230 228 231 234 235 238 245 251 257 262 266 270 273 273
262 250 243 240 239 232 231 236 236 234 235 238 241 246 252 256 262 267 268 273 276 276
247 241 241 241 240 239 239 237 237 238 241 244 244 248 249 253 259 265 272 272 270 273
223 232 235 238 237 238 240 242 244 246 248 251 257 260 270 279 272 267 263 263 268 271